Monterrey Gen Maria, Mexico

2:19 AM CDT on September 21, 2017 (GMT -0500)
Gen Mariano Escobedo International

Weather History for MMMY - November, 2012

Change the Weather History Date:

Saturday, November 3, 2012

  Actual Average Record
Temperature  
Mean Temperature 74 °F -  
Max Temperature 86 °F 76 °F 86 °F (2012)
Min Temperature 62 °F 59 °F 44 °F (1999)
Cooling Degree Days 9    
Growing Degree Days 24 (Base 50)    
Moisture  
Dew Point 56 °F    
Average Humidity 60    
Maximum Humidity 88    
Minimum Humidity 33    
Precipitation  
Precipitation 0.00 in - - ()
Sea Level Pressure  
Sea Level Pressure 29.98 in    
Wind  
Wind Speed 4 mph ()    
Max Wind Speed 9 mph    
Max Gust Speed -    
Visibility 10.1 miles    
Events      
Averages and records for this station are not official NWS values.
T = Trace of Precipitation, MM = Missing Value Source: Averaged Metar Reports

Daily Weather History Graph

Daily Weather History Graph

Search for Another Location

Airport or City:

Trip Planner

Search our weather history database for the weather conditions in past years. The results will help you decide how hot, cold, wet, or windy it might be!

Date:

Astronomy

Nov. 03, 2012 Rise Set
Actual Time 6:50 AM CST 5:57 PM CST
Civil Twilight 6:26 AM CST 6:20 PM CST
Nautical Twilight 5:59 AM CST 6:48 PM CST
Astronomical Twilight 5:32 AM CST 7:15 PM CST
Moon 9:48 PM CST (11/3) 10:46 AM CST (11/3)
Length of Visible Light 11h 54m
Length of Day
11h 06m
Waning Gibbous, 80% of the Moon is Illuminated
Nov 3
Waning Gibbous
Nov 6
Last Quarter
Nov 13
New
Nov 20
First Quarter
Nov 28
Full

Hourly Weather History & Observations

Time (CST) Temp. Heat Index Dew Point Humidity Pressure Visibility Wind Dir Wind Speed Gust Speed Precip Events Conditions
12:46 AM 64.4 °F - 59.0 °F 83% 29.96 in 15.0 mi ESE 4.6 mph - N/A   Clear
1:40 AM 64.4 °F - 59.0 °F 83% 29.96 in 15.0 mi East 6.9 mph - N/A   Clear
2:45 AM 62.6 °F - 59.0 °F 88% 30.00 in 15.0 mi East 5.8 mph - N/A   Clear
3:49 AM 62.6 °F - 59.0 °F 88% 29.96 in 15.0 mi East 5.8 mph - N/A   Clear
4:54 AM 62.6 °F - 59.0 °F 88% 29.97 in 12.0 mi WNW 6.9 mph - N/A   Clear
5:41 AM 62.6 °F - 59.0 °F 88% 29.99 in 12.0 mi Calm Calm - N/A   Clear
6:40 AM 62.6 °F - 59.0 °F 88% 29.99 in 7.0 mi WNW 8.1 mph - N/A   Clear
7:43 AM 64.4 °F - 60.8 °F 88% 30.01 in 6.0 mi WNW 4.6 mph - N/A   Clear
8:45 AM 71.6 °F - 59.0 °F 64% 30.04 in 6.0 mi West 3.5 mph - N/A   Clear
9:45 AM 73.4 °F - 59.0 °F 61% 30.04 in 6.0 mi NE 4.6 mph - N/A   Clear
10:43 AM 77.0 °F - 55.4 °F 47% 30.03 in 7.0 mi NE 4.6 mph - N/A   Scattered Clouds
11:50 AM 80.6 °F 80.3 °F 53.6 °F 39% 29.92 in 8.0 mi SSE 6.9 mph - N/A   Scattered Clouds
12:43 PM 82.4 °F 81.4 °F 53.6 °F 37% 29.98 in 8.0 mi SSE 6.9 mph - N/A   Mostly Cloudy
1:44 PM 82.4 °F 81.4 °F 53.6 °F 37% 29.95 in 10.0 mi ESE 8.1 mph - N/A   Mostly Cloudy
2:46 PM 86.0 °F 84.2 °F 53.6 °F 33% 29.98 in 10.0 mi SE 9.2 mph - N/A   Scattered Clouds
3:41 PM 84.2 °F 83.0 °F 55.4 °F 37% 29.93 in 10.0 mi ESE 9.2 mph - N/A   Mostly Cloudy
4:45 PM 84.2 °F 82.8 °F 53.6 °F 35% 29.93 in 10.0 mi SSE 8.1 mph - N/A   Mostly Cloudy
5:40 PM 82.4 °F 81.4 °F 53.6 °F 37% 29.93 in 10.0 mi SSE 4.6 mph - N/A   Mostly Cloudy
6:40 PM 77.0 °F - 55.4 °F 47% 29.95 in 10.0 mi South 4.6 mph - N/A   Mostly Cloudy
7:41 PM 75.2 °F - 55.4 °F 50% 29.96 in 10.0 mi Calm Calm - N/A   Scattered Clouds
8:43 PM 73.4 °F - 55.4 °F 53% 29.96 in 10.0 mi Calm Calm - N/A   Clear
9:47 PM 73.4 °F - 55.4 °F 53% 29.99 in 10.0 mi Calm Calm - N/A   Clear
10:45 PM 71.6 °F - 53.6 °F 53% 30.00 in 10.0 mi Calm Calm - N/A   Scattered Clouds
11:50 PM 68.0 °F - 55.4 °F 64% 29.99 in 10.0 mi Calm Calm - N/A   Mostly Cloudy